Location: State Line Observation Field
(36.5320°N, 77.5360°W)
Time: 16:07:04
(UTC-04:00)

Envisat - Pass Details

Date: 11 March 2021
Orbit: 764 x 766 km, 98.1° (Epoch: 16 April)

Event Time Altitude Azimuth Distance (km) Brightness Sun altitude
Rises 05:04:21 0° 23° (NNE) 3,236 6.7 -17.3°
Reaches altitude 10° 05:06:54 10° 34° (NNE) 2,306 6.1 -16.8°
Maximum altitude 05:11:26 32° 97° (E) 1,285 4.9 -15.9°
Drops below altitude 10° 05:15:56 10° 160° (SSE) 2,291 5.6 -15.0°
Sets 05:18:27 0° 170° (S) 3,212 6.3 -14.5°
